User: anonymous   Login
Location: Vancouver
(49.2500°N, 123.1330°W)
Time: 09:05:35
(UTC-07:00)
Language:

Cosmos 1864 Rocket - Orbit

View from above orbital plane
View from above orbital plane
View from above satellite
View from above satellite

Ground track
Ground track

The orbit data is extracted from the following two-line orbital elements,

1 18161U 87057B   15123.53550058 -.00000023  00000-0 -38759-4 0  9990
2 18161 082.9314 289.1012 0030436 326.1569 092.9006 13.76889283377487
Epoch (UTC): 03 May 2015 12:51:07
Eccentricity: 0.0030436
inclination: 82.9314°
perigee height: 952 km
apogee height: 997 km
right ascension of ascending node: 289.1012°
argument of perigee: 326.1569°
revolutions per day: 13.76889283
mean anomaly at epoch: 92.9006°
orbit number at epoch: 37748

The dashed part of the orbit path shows where the satellite is in the earth's shadow,  

DLR